EA1M Weather Reports


Display with metric or nautical units.
time (UTC)temp
F
wind
direction
speed
MPH
gust
MPH
rain 1hr
in
rain 24hr
in
rain mn
in
humidity
%
barometer
mb
20260905094054 77 18 2.0 3.0 0.00 0.00 0.00 73 1020.3
20260905093118 78 32 1.0 2.0 0.00 0.00 0.00 70 1020.4
20260905092039 78 0.0 1.0 0.00 0.00 0.00 70 1020.5
20260905091102 76 42 0.0 1.0 0.00 0.00 0.00 73 1020.4
20260905090022 75 37 1.0 2.0 0.00 0.00 0.00 75 1020.5
20260905085046 74 29 1.0 3.0 0.00 0.00 0.00 75 1020.5
20260905084109 73 43 1.0 2.0 0.00 0.00 0.00 78 1020.5
20260905083031 73 24 2.0 4.0 0.00 0.00 0.00 81 1020.7
20260905082054 70 73 0.0 1.0 0.00 0.00 0.00 86 1020.5
20260905081118 69 63 0.0 1.0 0.00 0.00 0.00 89 1020.3
20260905075123 68 92 2.0 4.0 0.00 0.00 0.00 90 1020.1
20260905074022 68 152 3.0 6.0 0.00 0.00 0.00 90 1020.3
20260905073046 68 113 3.0 6.0 0.00 0.00 0.00 90 1020.2
20260905072131 68 91 2.0 6.0 0.00 0.00 0.00 91 1020.1
20260905071031 67 48 0.0 2.0 0.00 0.00 0.00 92 1019.9
20260905070055 67 42 0.0 2.0 0.00 0.00 0.00 92 1019.9
20260905065118 67 42 1.0 2.0 0.00 0.00 0.00 92 1020.3
20260905064058 67 20 1.0 2.0 0.00 0.00 0.00 93 1020.4
20260905063102 66 71 0.0 1.0 0.00 0.00 0.00 93 1020.6
20260905062022 66 104 2.0 4.0 0.00 0.00 0.00 92 1020.7
20260905061106 66 87 3.0 6.0 0.00 0.00 0.00 92 1020.7
20260905060111 67 123 2.0 6.0 0.00 0.00 0.00 92 1020.4
20260905055031 67 92 1.0 2.0 0.00 0.00 0.00 92 1020.3
20260905054054 67 0.0 0.0 0.00 0.00 0.00 92 1020.0
20260905053118 67 72 0.0 2.0 0.00 0.00 0.00 92 1020.1
20260905052038 67 113 2.0 3.0 0.00 0.00 0.00 92 1020.3
20260905051103 67 40 1.0 1.0 0.00 0.00 0.00 92 1020.2
20260905050022 67 79 0.0 1.0 0.00 0.00 0.00 92 1020.3
20260905045106 67 83 0.0 1.0 0.00 0.00 0.00 92 1020.4
20260905044110 67 78 1.0 2.0 0.00 0.00 0.00 92 1020.4
20260905043050 67 78 1.0 2.0 0.00 0.00 0.00 92 1020.3
20260905042055 67 41 0.0 1.0 0.00 0.00 0.00 92 1020.5
20260905041118 67 75 1.0 3.0 0.00 0.00 0.00 93 1020.7
20260905040038 66 82 1.0 4.0 0.00 0.00 0.00 93 1020.9
20260905035102 66 115 3.0 4.0 0.00 0.00 0.00 93 1020.8
20260905034022 66 100 2.0 4.0 0.00 0.00 0.00 92 1020.8
20260905033106 66 105 2.0 7.0 0.00 0.00 0.00 92 1021.1
20260905032110 66 107 4.0 6.0 0.00 0.00 0.00 92 1020.9
20260905031050 66 137 3.0 6.0 0.00 0.00 0.00 92 1020.9
20260905030114 66 89 2.0 6.0 0.00 0.00 0.00 92 1020.6
20260905025118 66 129 3.0 4.0 0.00 0.00 0.00 92 1020.7
20260905024038 66 81 3.0 4.0 0.00 0.00 0.00 92 1021.1
20260905023101 66 114 3.0 6.0 0.00 0.00 0.00 92 1021.1
20260905022022 67 102 2.0 3.0 0.00 0.00 0.00 92 1021.4
20260905021107 67 93 2.0 3.0 0.00 0.00 0.00 92 1021.4
20260905020111 67 99 1.0 3.0 0.00 0.00 0.00 92 1021.5
20260905015030 66 74 1.0 2.0 0.00 0.00 0.00 92 1021.7
20260905014054 66 79 0.0 1.0 0.00 0.00 0.00 92 1021.7
20260905013118 66 62 0.0 1.0 0.00 0.00 0.00 92 1021.7
20260905012037 66 0.0 0.0 0.00 0.00 0.00 91 1021.9
20260905011123 66 48 0.0 1.0 0.00 0.00 0.00 91 1022.0
20260905010022 67 37 1.0 3.0 0.00 0.00 0.00 91 1022.0
20260905005046 67 35 1.0 3.0 0.00 0.00 0.00 91 1022.2
20260905004110 67 13 2.0 4.0 0.00 0.00 0.00 90 1022.3
20260905003050 67 33 1.0 2.0 0.00 0.00 0.00 90 1022.5
20260905002115 67 40 1.0 1.0 0.00 0.00 0.00 90 1022.7
20260905001118 67 0.0 2.0 0.00 0.00 0.00 90 1022.9
20260905000038 67 35 1.0 2.0 0.00 0.00 0.00 90 1022.8
20260904235102 67 0.0 0.0 0.00 0.00 0.00 90 1023.0
20260904234022 67 74 1.0 2.0 0.00 0.00 0.00 90 1023.1
20260904233106 67 86 1.0 2.0 0.00 0.00 0.00 89 1023.1
20260904232111 67 84 2.0 4.0 0.00 0.00 0.00 89 1023.3
20260904231031 67 106 2.0 4.0 0.00 0.00 0.00 89 1023.2
20260904230054 68 75 1.0 3.0 0.00 0.00 0.00 89 1023.2
20260904225118 68 85 2.0 3.0 0.00 0.00 0.00 88 1023.3
20260904224038 68 79 1.0 2.0 0.00 0.00 0.00 88 1023.3
20260904223102 68 68 0.0 1.0 0.00 0.00 0.00 88 1023.3
20260904222023 68 55 0.0 1.0 0.00 0.00 0.00 88 1023.2
20260904221046 68 0.0 0.0 0.00 0.00 0.00 88 1023.2
20260904220110 68 0.0 0.0 0.00 0.00 0.00 87 1023.3
20260904215030 68 40 1.0 2.0 0.00 0.00 0.00 86 1023.2
20260904214054 69 0.0 0.0 0.00 0.00 0.00 86 1023.2
20260904213118 69 83 1.0 2.0 0.00 0.00 0.00 86 1023.3
20260904212039 69 83 0.0 1.0 0.00 0.00 0.00 86 1023.4
20260904211103 69 0.0 0.0 0.00 0.00 0.00 86 1023.4
20260904210022 69 0.0 0.0 0.00 0.00 0.00 86 1023.6
20260904205046 69 83 0.0 1.0 0.00 0.00 0.00 85 1023.4
20260904204110 69 83 0.0 1.0 0.00 0.00 0.00 85 1023.5
20260904203030 69 72 1.0 2.0 0.00 0.00 0.00 85 1023.4
20260904202054 69 64 0.0 1.0 0.00 0.00 0.00 85 1023.2
20260904201138 69 108 2.0 3.0 0.00 0.00 0.00 84 1023.4
20260904200119 69 83 1.0 2.0 0.00 0.00 0.00 84 1023.4
20260904195102 69 152 2.0 3.0 0.00 0.00 0.00 84 1023.2
20260904194022 69 24 1.0 2.0 0.00 0.00 0.00 84 1022.8
20260904193046 69 44 1.0 2.0 0.00 0.00 0.00 85 1022.9
20260904192110 69 22 2.0 4.0 0.00 0.00 0.00 84 1022.9
20260904191030 69 331 2.0 4.0 0.00 0.00 0.00 84 1022.8
20260904190054 70 16 2.0 6.0 0.00 0.00 0.00 83 1022.9
20260904185118 71 3 3.0 6.0 0.00 0.00 0.00 81 1023.0
20260904184038 71 20 1.0 3.0 0.00 0.00 0.00 81 1023.0
20260904183102 71 18 2.0 3.0 0.00 0.00 0.00 80 1022.8
20260904182022 72 345 2.0 4.0 0.00 0.00 0.00 79 1022.7
20260904181046 71 312 3.0 4.0 0.00 0.00 0.00 79 1022.7
20260904180110 72 326 3.0 6.0 0.00 0.00 0.00 79 1022.6
20260904175030 73 347 2.0 6.0 0.00 0.00 0.00 77 1022.6
20260904174053 73 76 2.0 3.0 0.00 0.00 0.00 77 1022.5
20260904173137 74 343 2.0 6.0 0.00 0.00 0.00 75 1022.4
20260904172039 73 341 3.0 6.0 0.00 0.00 0.00 77 1022.3
20260904171103 73 340 2.0 6.0 0.00 0.00 0.00 78 1022.2
20260904170022 71 344 2.0 7.0 0.00 0.00 0.00 80 1022.1
20260904165047 71 341 4.0 9.0 0.00 0.00 0.00 80 1022.0
20260904164110 72 334 3.0 6.0 0.00 0.00 0.00 78 1022.2
20260904163029 74 304 3.0 6.0 0.00 0.00 0.00 76 1021.9
20260904162054 73 4 2.0 7.0 0.00 0.00 0.00 76 1021.9
20260904161118 73 348 5.0 9.0 0.00 0.00 0.00 77 1022.1
20260904160038 72 355 3.0 8.0 0.00 0.00 0.00 80 1022.4
20260904155102 71 36 3.0 8.0 0.00 0.00 0.00 80 1022.5
20260904154022 72 348 3.0 6.0 0.00 0.00 0.00 79 1022.7
20260904153046 73 356 3.0 7.0 0.00 0.00 0.00 77 1022.9
20260904152110 73 86 4.0 8.0 0.00 0.00 0.00 77 1023.1
20260904151050 73 330 4.0 9.0 0.00 0.00 0.00 76 1023.1
20260904150054 73 325 4.0 8.0 0.00 0.00 0.00 76 1023.4
20260904145118 73 8 4.0 9.0 0.00 0.00 0.00 77 1023.3
20260904144038 73 354 3.0 8.0 0.00 0.00 0.00 76 1023.6
20260904143122 75 353 4.0 7.0 0.00 0.00 0.00 74 1023.6
20260904142023 74 325 3.0 7.0 0.00 0.00 0.00 75 1023.7
20260904141046 74 336 4.0 10.0 0.00 0.00 0.00 76 1023.7
20260904140130 74 17 4.0 8.0 0.00 0.00 0.00 76 1023.7
20260904135030 73 2 4.0 8.0 0.00 0.00 0.00 77 1024.0
20260904134134 74 327 4.0 8.0 0.00 0.00 0.00 77 1023.8
20260904133118 73 325 5.0 9.0 0.00 0.00 0.00 78 1023.8
20260904132037 74 340 4.0 9.0 0.00 0.00 0.00 77 1023.9
20260904131101 74 2 3.0 7.0 0.00 0.00 0.00 76 1024.0
20260904130022 73 11 3.0 7.0 0.00 0.00 0.00 78 1023.9
20260904125047 73 40 1.0 4.0 0.00 0.00 0.00 80 1023.6
20260904124111 73 347 5.0 9.0 0.00 0.00 0.00 78 1023.4
20260904123031 73 359 4.0 9.0 0.00 0.00 0.00 78 1023.2
20260904122054 74 359 4.0 7.0 0.00 0.00 0.00 77 1023.4
20260904121118 73 27 3.0 6.0 0.00 0.00 0.00 78 1023.5
20260904120038 73 88 1.0 3.0 0.00 0.00 0.00 78 1023.5
20260904115101 72 41 1.0 3.0 0.00 0.00 0.00 81 1023.2
20260904114021 70 345 3.0 4.0 0.00 0.00 0.00 83 1023.1
20260904113046 70 282 3.0 4.0 0.00 0.00 0.00 83 1023.1
20260904112110 69 30 1.0 3.0 0.00 0.00 0.00 87 1023.1
20260904111030 68 356 1.0 3.0 0.00 0.00 0.00 90 1023.1
20260904110054 68 119 3.0 4.0 0.00 0.00 0.00 92 1023.2
20260904105117 68 20 1.0 3.0 0.00 0.00 0.00 93 1023.1
20260904104058 67 36 1.0 3.0 0.00 0.00 0.00 94 1023.0
20260904103102 67 32 1.0 2.0 0.00 0.00 0.00 95 1023.0
20260904102041 66 37 0.0 1.0 0.00 0.00 0.00 95 1022.9
20260904101106 65 90 2.0 3.0 0.00 0.00 0.00 95 1023.0
20260904100109 65 89 0.0 3.0 0.00 0.00 0.00 96 1023.0
20260904095029 64 88 2.0 4.0 0.00 0.00 0.00 96 1023.1